Weather History for Big Bear City, CA

Change the Weather History Date:

Wednesday, May 7, 2014

  Actual Average (KBUO) Record (KBUO)
Temperature  
Mean Temperature 38 °F -  
Max Temperature 46 °F 73 °F 96 °F (2001)
Min Temperature 30 °F 48 °F 50 °F (1998)
Degree Days  
Heating Degree Days 27    
Moisture  
Dew Point 30 °F    
Average Humidity 75    
Maximum Humidity 93    
Minimum Humidity 40    
Precipitation  
Precipitation 0.00 in - - ()
Sea Level Pressure  
Sea Level Pressure 29.96 in    
Wind  
Wind Speed 5 mph (WSW)    
Max Wind Speed 15 mph    
Max Gust Speed 21 mph    
Visibility 10 miles    
Events      
Averages and records for this station are not official NWS values.
T = Trace of Precipitation, MM = Missing Value Source: NWS Daily Summary

Daily Weather History Graph

Daily Weather History Graph

Search for Another Location

Airport:

Trip Planner

Search our weather history database for the weather conditions in past years. The results will help you decide how hot, cold, wet, or windy it might be!

Date:

Astronomy

May. 07, 2014 Rise Set
Actual Time 5:51 AM PDT 7:36 PM PDT
Civil Twilight 5:24 AM PDT 8:03 PM PDT
Nautical Twilight 4:51 AM PDT 8:36 PM PDT
Astronomical Twilight 4:17 AM PDT 9:11 PM PDT
Moon 1:03 PM PDT (5/7) 1:35 AM PDT (5/7)
Length of Visible Light 14h 38m
Length of Day
13h 44m
First Quarter, 56% of the Moon is Illuminated
May 7
First Quarter
May 14
Full
May 21
Last Quarter
May 28
New
Jun 5
First Quarter

Hourly Weather History & Observations

Time (PDT) Temp. Windchill Dew Point Humidity Pressure Visibility Wind Dir Wind Speed Gust Speed Precip Events Conditions
12:15 AM 32.0 °F 28.7 °F 30.2 °F 93% 29.87 in 10.0 mi WSW 3.5 mph - N/A   Overcast
12:35 AM 32.0 °F 27.5 °F 30.2 °F 93% 29.87 in 10.0 mi WSW 4.6 mph - N/A   Overcast
12:55 AM 32.0 °F 28.7 °F 30.2 °F 93% 29.87 in 10.0 mi WSW 3.5 mph - N/A   Mostly Cloudy
1:15 AM 32.0 °F 28.7 °F 30.2 °F 93% 29.87 in 10.0 mi WSW 3.5 mph - N/A   Mostly Cloudy
1:35 AM 32.0 °F 28.7 °F 30.2 °F 93% 29.87 in 10.0 mi SW 3.5 mph - N/A   Overcast
1:55 AM 32.0 °F 27.5 °F 30.2 °F 93% 29.87 in 10.0 mi WSW 4.6 mph - N/A   Mostly Cloudy
2:15 AM 32.0 °F 24.8 °F 30.2 °F 93% 29.87 in 10.0 mi WSW 8.1 mph - N/A   Mostly Cloudy
2:35 AM 32.0 °F 24.8 °F 30.2 °F 93% 29.87 in 10.0 mi SW 8.1 mph - N/A   Mostly Cloudy
2:55 AM 32.0 °F 26.4 °F 30.2 °F 93% 29.88 in 10.0 mi SW 5.8 mph - N/A   Mostly Cloudy
3:15 AM 32.0 °F - 28.4 °F 87% 29.88 in 10.0 mi Calm Calm - N/A   Mostly Cloudy
3:35 AM 32.0 °F 28.7 °F 28.4 °F 87% 29.88 in 10.0 mi SW 3.5 mph - N/A   Scattered Clouds
3:55 AM 32.0 °F 28.7 °F 28.4 °F 87% 29.88 in 10.0 mi WSW 3.5 mph - N/A   Clear
4:15 AM 32.0 °F - 28.4 °F 87% 29.88 in 10.0 mi Calm Calm - N/A   Clear
4:35 AM 32.0 °F - 28.4 °F 87% 29.88 in 10.0 mi Calm Calm - N/A   Clear
4:55 AM 30.2 °F - 28.4 °F 93% 29.88 in 10.0 mi Calm Calm - N/A   Clear
5:15 AM 30.2 °F - 28.4 °F 93% 29.88 in 10.0 mi Calm Calm - N/A   Clear
5:35 AM 30.2 °F - 28.4 °F 93% 29.88 in 10.0 mi Calm Calm - N/A   Clear
5:55 AM 30.2 °F 26.7 °F 28.4 °F 93% 29.89 in 10.0 mi WSW 3.5 mph - N/A   Clear
6:15 AM 30.2 °F - 28.4 °F 93% 29.90 in 10.0 mi Calm Calm - N/A   Clear
6:35 AM 32.0 °F 28.7 °F 28.4 °F 87% 29.90 in 10.0 mi West 3.5 mph - N/A   Clear
6:55 AM 32.0 °F 25.6 °F 30.2 °F 93% 29.91 in 10.0 mi West 6.9 mph - N/A   Clear
7:15 AM 33.8 °F 28.6 °F 30.2 °F 87% 29.92 in 10.0 mi West 5.8 mph - N/A   Scattered Clouds
7:35 AM 35.6 °F 30.7 °F 30.2 °F 81% 29.92 in 10.0 mi West 5.8 mph - N/A   Scattered Clouds
7:55 AM 35.6 °F 29.9 °F 30.2 °F 81% 29.92 in 10.0 mi West 6.9 mph - N/A   Clear
8:15 AM 35.6 °F 29.2 °F 30.2 °F 81% 29.94 in 10.0 mi West 8.1 mph - N/A   Clear
8:35 AM 37.4 °F 32.1 °F 30.2 °F 75% 29.94 in 10.0 mi West 6.9 mph - N/A   Clear
8:55 AM 39.2 °F 33.6 °F 30.2 °F 70% 29.95 in 10.0 mi West 8.1 mph - N/A   Clear
9:15 AM 39.2 °F 33.6 °F 30.2 °F 70% 29.95 in 10.0 mi WSW 8.1 mph - N/A   Clear
9:35 AM 41.0 °F 34.3 °F 30.2 °F 65% 29.96 in 10.0 mi West 11.5 mph - N/A   Clear
9:55 AM 42.8 °F 38.6 °F 30.2 °F 61% 29.96 in 10.0 mi SW 6.9 mph - N/A   Scattered Clouds
10:15 AM 44.6 °F 39.2 °F 30.2 °F 57% 29.97 in 10.0 mi West 10.4 mph - N/A   Mostly Cloudy
10:35 AM 44.6 °F 40.2 °F 28.4 °F 53% 29.97 in 10.0 mi WSW 8.1 mph - N/A   Mostly Cloudy
10:55 AM 42.8 °F 38.0 °F 28.4 °F 57% 29.98 in 10.0 mi WSW 8.1 mph 16.1 mph N/A   Mostly Cloudy
11:35 AM 46.4 °F 41.9 °F 26.6 °F 46% 29.98 in 10.0 mi WSW 9.2 mph - N/A   Mostly Cloudy
11:55 AM 44.6 °F 41.4 °F 24.8 °F 46% 29.98 in 10.0 mi WSW 5.8 mph 16.1 mph N/A   Mostly Cloudy
12:15 PM 46.4 °F 41.9 °F 23.0 °F 40% 29.99 in 10.0 mi West 9.2 mph - N/A   Mostly Cloudy
12:35 PM 46.4 °F 42.4 °F 28.4 °F 50% 29.99 in 10.0 mi SSW 8.1 mph - N/A   Scattered Clouds
12:55 PM 46.4 °F 41.1 °F 26.6 °F 46% 29.99 in 10.0 mi West 11.5 mph - N/A   Clear
1:15 PM 44.6 °F 39.7 °F 30.2 °F 57% 29.99 in 10.0 mi SSW 9.2 mph - N/A   Scattered Clouds
1:55 PM 46.4 °F 42.4 °F 30.2 °F 53% 30.00 in 10.0 mi South 8.1 mph 16.1 mph N/A   Scattered Clouds
2:15 PM 46.4 °F 41.5 °F 30.2 °F 53% 30.00 in 10.0 mi SW 10.4 mph 16.1 mph N/A   Scattered Clouds
2:35 PM 46.4 °F 42.4 °F 30.2 °F 53% 30.00 in 10.0 mi South 8.1 mph - N/A   Scattered Clouds
2:55 PM 44.6 °F 39.2 °F 30.2 °F 57% 29.99 in 10.0 mi South 10.4 mph 18.4 mph N/A   Scattered Clouds
3:15 PM 46.4 °F 42.9 °F 30.2 °F 53% 29.99 in 10.0 mi SW 6.9 mph 18.4 mph N/A   Scattered Clouds
3:35 PM 46.4 °F 40.1 °F 30.2 °F 53% 29.99 in 10.0 mi West 15.0 mph 18.4 mph N/A   Clear
3:55 PM 46.4 °F 41.5 °F 30.2 °F 53% 29.99 in 10.0 mi WSW 10.4 mph - N/A   Clear
4:15 PM 44.6 °F 39.7 °F 30.2 °F 57% 30.00 in 10.0 mi WSW 9.2 mph 18.4 mph N/A   Scattered Clouds
4:35 PM 44.6 °F 38.1 °F 30.2 °F 57% 30.00 in 10.0 mi West 13.8 mph 19.6 mph N/A   Scattered Clouds
4:55 PM 44.6 °F 38.4 °F 32.0 °F 61% 30.00 in 10.0 mi West 12.7 mph 20.7 mph N/A   Scattered Clouds
5:15 PM 42.8 °F 35.4 °F 30.2 °F 61% 30.00 in 10.0 mi West 15.0 mph 19.6 mph N/A   Scattered Clouds
5:35 PM 42.8 °F 37.0 °F 32.0 °F 66% 30.00 in 10.0 mi West 10.4 mph 17.3 mph N/A   Scattered Clouds
5:55 PM 42.8 °F 39.3 °F 32.0 °F 66% 30.00 in 10.0 mi WSW 5.8 mph 16.1 mph N/A   Scattered Clouds
6:15 PM 41.0 °F 38.0 °F 32.0 °F 70% 30.00 in 10.0 mi SW 4.6 mph - N/A   Scattered Clouds
6:35 PM 41.0 °F 35.8 °F 32.0 °F 70% 29.99 in 10.0 mi SW 8.1 mph - N/A   Scattered Clouds
6:55 PM 39.2 °F 33.0 °F 32.0 °F 75% 30.00 in 10.0 mi WSW 9.2 mph - N/A   Scattered Clouds
7:15 PM 37.4 °F 31.4 °F 32.0 °F 81% 30.00 in 10.0 mi WSW 8.1 mph - N/A   Scattered Clouds
7:35 PM 37.4 °F 32.1 °F 32.0 °F 81% 30.00 in 10.0 mi SW 6.9 mph - N/A   Mostly Cloudy
7:55 PM 37.4 °F 33.8 °F 32.0 °F 81% 30.00 in 10.0 mi SW 4.6 mph - N/A   Mostly Cloudy
8:15 PM 37.4 °F 31.4 °F 32.0 °F 81% 30.00 in 10.0 mi SW 8.1 mph - N/A   Mostly Cloudy
8:35 PM 37.4 °F 34.9 °F 32.0 °F 81% 30.01 in 10.0 mi WSW 3.5 mph - N/A   Mostly Cloudy
8:55 PM 37.4 °F 32.8 °F 32.0 °F 81% 30.01 in 10.0 mi WSW 5.8 mph - N/A   Scattered Clouds
9:15 PM 37.4 °F 32.1 °F 32.0 °F 81% 30.03 in 10.0 mi SW 6.9 mph - N/A   Mostly Cloudy
9:35 PM 35.6 °F 31.7 °F 32.0 °F 87% 30.03 in 10.0 mi WSW 4.6 mph - N/A   Mostly Cloudy
9:55 PM 35.6 °F 31.7 °F 30.2 °F 81% 30.04 in 10.0 mi WSW 4.6 mph - N/A   Clear
10:15 PM 35.6 °F 29.2 °F 30.2 °F 81% 30.05 in 10.0 mi West 8.1 mph - N/A   Clear
10:35 PM 33.8 °F - 32.0 °F 93% 30.05 in 10.0 mi Calm Calm - N/A   Clear
10:55 PM 33.8 °F 30.8 °F 30.2 °F 87% 30.05 in 10.0 mi WSW 3.5 mph - N/A   Clear
11:15 PM 33.8 °F - 30.2 °F 87% 30.04 in 10.0 mi Calm Calm - N/A   Clear
11:35 PM 32.0 °F - 28.4 °F 87% 30.04 in 10.0 mi Calm Calm - N/A   Clear
11:55 PM 32.0 °F - 28.4 °F 87% 30.05 in 10.0 mi Calm Calm - N/A   Clear